Home   Weather   Fehmarn (Puttgarden)   Past weeks

Flag for Germany Past Weather in Fehmarn (Puttgarden), Schleswig-Holstein, Germany — Yesterday and Last 2 Weeks

Now
45 °F

Overcast.


Feels Like: 40 °F
Forecast: 39 / 45 °F
Wind: 12 mph from Northwest

Location: Westermarkelsdorf

Current Time: Dec 11, 2016 at 2:57:59 pm

Latest Report: Dec 11, 2016 at 2:00 pm


Visibility: 16 mi

Pressure: 29.83 "Hg

Humidity: 87%

Dew Point: 42 °F

Location of Fehmarn (Puttgarden)Location

Past Weather in Fehmarn (Puttgarden) — Graph

°F

Fehmarn (Puttgarden) Temperature Yesterday

Maximum temperature yesterday: 47 °F (at 12:00 am)
Minimum temperature yesterday: 46 °F (at 11:00 pm)
Average temperature yesterday: 47 °F

High & Low Weather Summary for the Past Weeks

 TemperatureHumidityPressure
High47 °F (Nov 26, 8:00 pm)100% (Dec 9, 5:00 am)30.52 "Hg (Dec 9, 5:00 am)
Low33 °F (Dec 3, 9:00 am)53% (Nov 28, 3:00 pm)29.77 "Hg (Dec 1, 8:00 pm)
Average42 °F84%30.19 "Hg
* Reported Nov 26 12:00 pm — Dec 11 12:00 pm, Fehmarn (Puttgarden), Weather by CustomWeather, © 2016

Note: Actual official high and low records may vary slightly from our data, if they occured in-between our weather recording intervals... More about our weather records

Advertising

Fehmarn (Puttgarden) Weather History for the Previous 24 Hours

Scroll right to see more
 ConditionsComfort  
Time TempWeatherWind HumidityBarometerVisibility
12:00 pm
Sun, Dec 11
46 °FOvercast.12 mph93%29.81 "Hg11 mi
11:00 am45 °FOvercast.12 mph94%29.80 "Hg17 mi
9:00 am43 °FOvercast.5 mph96%29.79 "Hg19 mi
8:00 am44 °FLight rain. Overcast.7 mph96%29.79 "Hg4 mi
6:00 am45 °FLight rain. Low clouds.N/A100%29.78 "Hg0 mi
5:00 am45 °FLight rain. Low clouds.3 mph100%29.80 "Hg0 mi
3:00 am45 °FFog.6 mph98%29.87 "Hg2 mi
2:00 am45 °FFog.6 mph99%29.88 "Hg2 mi
12:00 am46 °FFog.6 mph97%29.94 "Hg4 mi
11:00 pm
Sat, Dec 10
46 °FFog.9 mph96%29.96 "Hg3 mi
9:00 pm46 °FLow clouds.8 mph97%29.99 "Hg3 mi
8:00 pm46 °FLow clouds.9 mph97%30.01 "Hg2 mi
6:00 pm46 °FOvercast.9 mph97%30.01 "Hg4 mi
5:00 pm47 °FOvercast.8 mph96%30.01 "Hg6 mi
3:00 pm47 °FOvercast.9 mph96%30.01 "Hg6 mi
2:00 pm47 °FFog.9 mph98%30.01 "Hg2 mi
Weather by CustomWeather, © 2016

See weather overviewHow to use our weather pages